GTI854 DNMM-EDDS

Flight info

Callsign GTI854
Flight time 5h 16m
Altitude 33000
Route BUDSI1Q BUDSI UB731 KIGRA UM114 NASTO/N0503F320 UM114 LITAK/N0505F330 UM114 BIDOM UG855 TMS UZ111 OPRIC/N0489F340 UZ111 ELO UR978 CSO UA605 CIRTA DCT ERPIN DCT NOSTA DCT ABESI N851 LEBSO DCT REUTL REUTL5A
Aircraft B748/H-SDE3FGHIM1M2RWXY/LB1

Departure

Time 2026-05-05 10:39
Airport Murtala Muhammed International Airport (DNMM)

Arrival

Time 2026-05-05 15:55
Airport Stuttgart Airport (EDDS)
Time Latitude Longitude Altitude Speed Heading
2026-05-05 10:23 6.56883 3.31767 104 ft 0 kts 88°
2026-05-05 10:29 6.56881 3.31766 104 ft 4 kts 116°
2026-05-05 10:30 6.56887 3.31745 102 ft 4 kts 100°
2026-05-05 10:30 6.56892 3.31719 102 ft 4 kts 104°
2026-05-05 10:30 6.56901 3.31695 105 ft 4 kts 140°
2026-05-05 10:30 6.56911 3.31689 103 ft 3 kts 179°
2026-05-05 10:33 6.56908 3.31689 103 ft 3 kts 179°
2026-05-05 10:33 6.56876 3.31674 104 ft 11 kts 210°
2026-05-05 10:33 6.56856 3.31628 106 ft 10 kts 262°
2026-05-05 10:33 6.56874 3.31558 105 ft 11 kts 323°
2026-05-05 10:34 6.57001 3.31540 105 ft 24 kts 356°
2026-05-05 10:34 6.57173 3.31535 105 ft 27 kts
2026-05-05 10:34 6.57370 3.31537 105 ft 29 kts
2026-05-05 10:34 6.57582 3.31530 105 ft 32 kts 359°
2026-05-05 10:35 6.57797 3.31531 103 ft 30 kts 359°
2026-05-05 10:35 6.57994 3.31524 104 ft 27 kts 359°
2026-05-05 10:35 6.58174 3.31525 105 ft 25 kts
2026-05-05 10:35 6.58337 3.31524 106 ft 22 kts 360°
2026-05-05 10:36 6.58487 3.31523 106 ft 21 kts 359°
2026-05-05 10:36 6.58624 3.31521 107 ft 19 kts 359°
2026-05-05 10:36 6.58749 3.31519 108 ft 14 kts 355°
2026-05-05 10:36 6.58803 3.31479 106 ft 11 kts 296°
2026-05-05 10:37 6.58799 3.31390 109 ft 13 kts 248°
2026-05-05 10:37 6.58749 3.31333 109 ft 9 kts 221°
2026-05-05 10:37 6.58705 3.31315 109 ft 5 kts 185°
2026-05-05 10:37 6.58674 3.31316 110 ft 4 kts 179°
2026-05-05 10:38 6.58646 3.31316 112 ft 9 kts 179°
2026-05-05 10:38 6.58331 3.31320 106 ft 83 kts 179°
2026-05-05 10:38 6.57516 3.31329 106 ft 147 kts 179°
2026-05-05 10:38 6.56325 3.31358 177 ft 190 kts 178°
2026-05-05 10:39 6.54962 3.31380 770 ft 199 kts 178°
2026-05-05 10:39 6.53512 3.31347 1398 ft 215 kts 193°
2026-05-05 10:39 6.52242 3.30597 2173 ft 219 kts 225°
2026-05-05 10:39 6.51683 3.29733 2579 ft 220 kts 251°
2026-05-05 10:40 6.51474 3.28267 3400 ft 207 kts 267°
2026-05-05 10:40 6.51490 3.26409 4242 ft 202 kts 268°
2026-05-05 10:40 6.51483 3.25446 4478 ft 208 kts 269°
2026-05-05 10:40 6.51780 3.23995 4740 ft 222 kts 302°
2026-05-05 10:41 6.52888 3.22940 5118 ft 223 kts 338°
2026-05-05 10:41 6.54406 3.22667 5402 ft 227 kts
2026-05-05 10:41 6.56004 3.22900 5645 ft 237 kts
2026-05-05 10:41 6.57694 3.22995 5835 ft 249 kts
2026-05-05 10:42 6.61275 3.22879 6382 ft 266 kts
2026-05-05 10:42 6.63176 3.22851 6619 ft 277 kts
2026-05-05 10:42 6.65120 3.22831 6959 ft 282 kts
2026-05-05 10:43 6.67098 3.22800 7324 ft 286 kts
2026-05-05 10:43 6.69092 3.22765 7709 ft 288 kts
2026-05-05 10:43 6.71100 3.22733 8100 ft 289 kts
2026-05-05 10:43 6.73098 3.22703 8633 ft 291 kts
2026-05-05 10:44 6.75150 3.22670 9454 ft 291 kts
2026-05-05 10:44 6.77147 3.22639 10188 ft 293 kts
2026-05-05 10:44 6.79247 3.22608 10727 ft 303 kts
2026-05-05 10:44 6.81399 3.22652 11112 ft 314 kts 12°
2026-05-05 10:45 6.83583 3.22964 11431 ft 332 kts 13°
2026-05-05 10:45 6.85973 3.23310 11751 ft 351 kts 12°
2026-05-05 10:45 6.88420 3.23653 12039 ft 370 kts 12°
2026-05-05 10:45 6.91032 3.24013 12321 ft 389 kts 12°
2026-05-05 10:46 6.93764 3.24393 12801 ft 401 kts 12°
2026-05-05 10:46 6.96546 3.24783 13445 ft 409 kts 12°
2026-05-05 10:46 6.99390 3.25182 14090 ft 415 kts 12°
2026-05-05 10:46 7.02267 3.25584 14724 ft 420 kts 11°
2026-05-05 10:47 7.05183 3.25992 15362 ft 425 kts 11°
2026-05-05 10:47 7.08126 3.26406 16008 ft 430 kts 12°
2026-05-05 10:47 7.11071 3.26965 16632 ft 433 kts 13°
2026-05-05 10:47 7.14055 3.27524 17241 ft 438 kts 13°
2026-05-05 10:48 7.17066 3.28077 17878 ft 442 kts 13°
2026-05-05 10:48 7.20101 3.28648 18456 ft 446 kts 13°
2026-05-05 10:48 7.23169 3.29234 18978 ft 450 kts 13°
2026-05-05 10:48 7.26260 3.29819 19492 ft 454 kts 12°
2026-05-05 10:49 7.29376 3.30403 20020 ft 458 kts 12°
2026-05-05 10:49 7.32517 3.30994 20520 ft 461 kts 12°
2026-05-05 10:49 7.35682 3.31593 21035 ft 465 kts 12°
2026-05-05 10:49 7.38876 3.32197 21523 ft 468 kts 12°
2026-05-05 10:50 7.42086 3.32802 22023 ft 472 kts 12°
2026-05-05 10:50 7.45331 3.33414 22487 ft 475 kts 12°
2026-05-05 10:50 7.48596 3.34030 22945 ft 479 kts 12°
2026-05-05 10:50 7.51875 3.34650 23411 ft 482 kts 12°
2026-05-05 10:51 7.55191 3.35276 23797 ft 486 kts 12°
2026-05-05 10:51 7.58528 3.35907 24162 ft 489 kts 11°
2026-05-05 10:51 7.61869 3.36538 24533 ft 491 kts 11°
2026-05-05 10:51 7.65243 3.37175 24903 ft 494 kts 11°
2026-05-05 10:52 7.68624 3.37814 25268 ft 496 kts 11°
2026-05-05 10:52 7.72029 3.38458 25630 ft 499 kts 11°
2026-05-05 10:52 7.75458 3.39106 25986 ft 501 kts 11°
2026-05-05 10:52 7.78898 3.39727 26339 ft 504 kts
2026-05-05 10:53 7.82349 3.40007 26674 ft 506 kts
2026-05-05 10:53 7.85870 3.40231 27008 ft 508 kts
2026-05-05 10:53 7.89407 3.40454 27328 ft 511 kts
2026-05-05 10:53 7.93010 3.40706 27643 ft 513 kts
2026-05-05 10:54 7.96561 3.40958 27957 ft 515 kts
2026-05-05 10:54 8.00074 3.41195 28426 ft 513 kts
2026-05-05 10:54 8.03626 3.41429 28904 ft 511 kts
2026-05-05 10:54 8.07172 3.41670 29393 ft 510 kts
2026-05-05 10:55 8.10765 3.41919 29854 ft 509 kts
2026-05-05 10:55 8.14251 3.42156 30282 ft 508 kts
2026-05-05 10:55 8.17768 3.42393 30659 ft 507 kts
2026-05-05 10:55 8.21281 3.42631 31065 ft 506 kts
2026-05-05 10:56 8.24792 3.42872 31457 ft 506 kts
2026-05-05 10:56 8.28309 3.43112 31840 ft 505 kts
2026-05-05 10:56 8.31809 3.43349 32230 ft 505 kts
2026-05-05 10:56 8.35321 3.43582 32612 ft 504 kts
2026-05-05 10:57 8.38820 3.43806 33001 ft 504 kts
2026-05-05 10:57 8.42316 3.44032 33369 ft 503 kts
2026-05-05 10:57 8.45805 3.44263 33761 ft 503 kts
2026-05-05 10:57 8.49298 3.44494 33937 ft 505 kts
2026-05-05 10:58 8.52838 3.44725 33937 ft 511 kts
2026-05-05 10:58 8.59957 3.45200 33931 ft 514 kts
2026-05-05 10:59 8.67111 3.45695 33935 ft 515 kts
2026-05-05 10:59 8.74275 3.46178 33936 ft 516 kts
2026-05-05 11:00 8.81433 3.46669 33930 ft 516 kts
2026-05-05 11:00 8.88584 3.47155 33931 ft 516 kts
2026-05-05 11:01 8.95755 3.47645 33922 ft 516 kts
2026-05-05 11:01 9.02911 3.48133 33923 ft 516 kts
2026-05-05 11:02 9.10067 3.48622 33919 ft 516 kts
2026-05-05 11:02 9.17236 3.49111 33918 ft 516 kts
2026-05-05 11:03 9.24387 3.49600 33915 ft 515 kts
2026-05-05 11:03 9.31535 3.50088 33915 ft 515 kts
2026-05-05 11:04 9.38642 3.50574 33910 ft 515 kts
2026-05-05 11:04 9.45843 3.51067 33907 ft 514 kts
2026-05-05 11:05 9.52925 3.51172 33905 ft 512 kts 358°
2026-05-05 11:05 9.60059 3.51045 33910 ft 512 kts 358°
2026-05-05 11:06 9.67199 3.50964 33913 ft 513 kts 358°
2026-05-05 11:06 9.74328 3.50853 33906 ft 513 kts 358°
2026-05-05 11:07 9.81449 3.50761 33908 ft 514 kts 358°
2026-05-05 11:07 9.88572 3.50657 33902 ft 511 kts 359°
2026-05-05 11:08 9.95666 3.50510 33898 ft 510 kts 358°
2026-05-05 11:08 10.02753 3.50362 33896 ft 509 kts 358°
2026-05-05 11:09 10.09845 3.50220 33898 ft 509 kts 358°
2026-05-05 11:09 10.16937 3.50071 33895 ft 509 kts 358°
2026-05-05 11:10 10.24026 3.49928 33893 ft 510 kts 358°
2026-05-05 11:10 10.31117 3.49780 33892 ft 510 kts 358°
2026-05-05 11:11 10.38200 3.49636 33888 ft 510 kts 358°
2026-05-05 11:11 10.45296 3.49489 33885 ft 509 kts 358°
2026-05-05 11:12 10.52380 3.49344 33885 ft 509 kts 358°
2026-05-05 11:12 10.59467 3.49197 33885 ft 508 kts 358°
2026-05-05 11:13 10.66536 3.49052 33884 ft 508 kts 358°
2026-05-05 11:13 10.73621 3.48906 33879 ft 508 kts 358°
2026-05-05 11:14 10.80669 3.48760 33878 ft 508 kts 358°
2026-05-05 11:14 10.87732 3.48614 33872 ft 508 kts 358°
2026-05-05 11:15 10.94806 3.48468 33871 ft 508 kts 358°
2026-05-05 11:15 11.01867 3.48323 33872 ft 508 kts 358°
2026-05-05 11:16 11.08939 3.48198 33872 ft 508 kts 358°
2026-05-05 11:16 11.16007 3.48066 33873 ft 508 kts 358°
2026-05-05 11:17 11.23067 3.47937 33875 ft 508 kts 358°
2026-05-05 11:17 11.30127 3.47807 33871 ft 508 kts 358°
2026-05-05 11:18 11.37192 3.47676 33867 ft 506 kts 358°
2026-05-05 11:18 11.44238 3.47546 33867 ft 506 kts 358°
2026-05-05 11:19 11.51280 3.47416 33867 ft 506 kts 358°
2026-05-05 11:19 11.58312 3.47286 33868 ft 506 kts 358°
2026-05-05 11:20 11.65315 3.47157 33867 ft 506 kts 358°
2026-05-05 11:20 11.72337 3.47027 33864 ft 504 kts 357°
2026-05-05 11:21 11.79355 3.46897 33867 ft 503 kts 357°
2026-05-05 11:21 11.86343 3.46768 33866 ft 503 kts 357°
2026-05-05 11:22 11.93345 3.46638 33867 ft 503 kts 357°
2026-05-05 11:22 12.00348 3.46509 33867 ft 503 kts 357°
2026-05-05 11:23 12.07338 3.46379 33875 ft 502 kts 357°
2026-05-05 11:23 12.14321 3.46249 33873 ft 501 kts 357°
2026-05-05 11:24 12.21293 3.46120 33871 ft 501 kts 357°
2026-05-05 11:24 12.28255 3.45991 33871 ft 501 kts 357°
2026-05-05 11:25 12.35226 3.45862 33870 ft 501 kts 357°
2026-05-05 11:25 12.42196 3.45733 33873 ft 501 kts 356°
2026-05-05 11:26 12.49162 3.45602 33877 ft 501 kts 356°
2026-05-05 11:26 12.54962 3.45495 33878 ft 501 kts 356°
2026-05-05 11:27 12.61926 3.45365 33875 ft 501 kts 356°
2026-05-05 11:27 12.68894 3.45231 33874 ft 501 kts 356°
2026-05-05 11:28 12.75859 3.45099 33876 ft 501 kts 356°
2026-05-05 11:28 12.82830 3.44965 33872 ft 500 kts 356°
2026-05-05 11:29 12.89796 3.44833 33872 ft 500 kts 356°
2026-05-05 11:29 12.96744 3.44700 33873 ft 500 kts 356°
2026-05-05 11:30 13.03706 3.44567 33871 ft 500 kts 356°
2026-05-05 11:30 13.10668 3.44435 33868 ft 500 kts 356°
2026-05-05 11:31 13.17577 3.44303 33864 ft 500 kts 355°
2026-05-05 11:31 13.24575 3.44169 33867 ft 500 kts 355°
2026-05-05 11:32 13.31490 3.44254 33867 ft 501 kts 358°
2026-05-05 11:32 13.38461 3.44369 33868 ft 501 kts 358°
2026-05-05 11:33 13.45425 3.44514 33868 ft 501 kts 358°
2026-05-05 11:33 13.52406 3.44643 33868 ft 501 kts 357°
2026-05-05 11:34 13.59371 3.44777 33868 ft 501 kts 357°
2026-05-05 11:34 13.66346 3.44897 33863 ft 501 kts 357°
2026-05-05 11:35 13.73326 3.45026 33863 ft 502 kts 357°
2026-05-05 11:35 13.80313 3.45150 33863 ft 502 kts 357°
2026-05-05 11:36 13.87294 3.45277 33855 ft 502 kts 357°
2026-05-05 11:36 13.94291 3.45402 33849 ft 503 kts 357°
2026-05-05 11:37 14.01278 3.45529 33846 ft 503 kts 357°
2026-05-05 11:37 14.08286 3.45655 33839 ft 503 kts 357°
2026-05-05 11:38 14.15283 3.45782 33843 ft 503 kts 357°
2026-05-05 11:38 14.22287 3.45909 33840 ft 503 kts 356°
2026-05-05 11:39 14.29291 3.46035 33840 ft 504 kts 357°
2026-05-05 11:39 14.36309 3.46162 33838 ft 504 kts 357°
2026-05-05 11:40 14.43323 3.46289 33839 ft 504 kts 357°
2026-05-05 11:40 14.50336 3.46417 33834 ft 504 kts 357°
2026-05-05 11:41 14.57354 3.46544 33832 ft 504 kts 357°
2026-05-05 11:41 14.64378 3.46671 33829 ft 504 kts 357°
2026-05-05 11:42 14.71384 3.46799 33829 ft 504 kts 357°
2026-05-05 11:42 14.78363 3.46925 33826 ft 504 kts 357°
2026-05-05 11:43 14.85431 3.47054 33824 ft 505 kts 357°
2026-05-05 11:43 14.92458 3.47182 33816 ft 505 kts 356°
2026-05-05 11:44 14.99429 3.47309 33819 ft 505 kts 356°
2026-05-05 11:44 15.06460 3.47437 33813 ft 505 kts 356°
2026-05-05 11:45 15.13544 3.47566 33815 ft 505 kts 356°
2026-05-05 11:45 15.20529 3.47694 33813 ft 506 kts 356°
2026-05-05 11:46 15.27568 3.47823 33810 ft 506 kts 356°
2026-05-05 11:46 15.34596 3.47951 33804 ft 506 kts 356°
2026-05-05 11:47 15.41636 3.48080 33801 ft 506 kts 356°
2026-05-05 11:47 15.48669 3.48208 33800 ft 506 kts 356°
2026-05-05 11:48 15.59225 3.48402 33800 ft 506 kts 356°
2026-05-05 11:48 15.66268 3.48531 33797 ft 505 kts 356°
2026-05-05 11:49 15.73286 3.48660 33792 ft 504 kts 356°
2026-05-05 11:49 15.80291 3.48788 33788 ft 503 kts 356°
2026-05-05 11:50 15.87253 3.48916 33787 ft 504 kts 356°
2026-05-05 11:50 15.94296 3.49045 33791 ft 504 kts 356°
2026-05-05 11:51 16.01313 3.49174 33792 ft 504 kts 356°
2026-05-05 11:51 16.08320 3.49303 33797 ft 504 kts 356°
2026-05-05 11:52 16.15334 3.49433 33797 ft 504 kts 356°
2026-05-05 11:52 16.22302 3.49561 33794 ft 504 kts 356°
2026-05-05 11:53 16.29324 3.49690 33794 ft 504 kts 356°
2026-05-05 11:53 16.36340 3.49817 33802 ft 506 kts 356°
2026-05-05 11:54 16.43379 3.49947 33799 ft 506 kts 356°
2026-05-05 11:54 16.50412 3.50075 33806 ft 506 kts 356°
2026-05-05 11:55 16.57499 3.50205 33807 ft 506 kts 356°
2026-05-05 11:55 16.64480 3.50333 33808 ft 506 kts 356°
2026-05-05 11:56 16.71539 3.50461 33799 ft 508 kts 356°
2026-05-05 11:56 16.78616 3.50592 33805 ft 508 kts 356°
2026-05-05 11:57 16.85685 3.50721 33801 ft 508 kts 356°
2026-05-05 11:57 16.92756 3.50851 33811 ft 508 kts 356°
2026-05-05 11:58 16.99834 3.50981 33804 ft 508 kts 356°
2026-05-05 11:58 17.06913 3.51111 33797 ft 510 kts 356°
2026-05-05 11:59 17.14010 3.51242 33792 ft 510 kts 356°
2026-05-05 11:59 17.21100 3.51372 33798 ft 510 kts 356°
2026-05-05 12:00 17.28200 3.51602 33804 ft 513 kts
2026-05-05 12:00 17.35126 3.53488 33799 ft 522 kts 14°
2026-05-05 12:01 17.42042 3.55931 33812 ft 521 kts 14°
2026-05-05 12:01 17.48917 3.58337 33811 ft 521 kts 14°
2026-05-05 12:02 17.55805 3.60761 33813 ft 522 kts 14°
2026-05-05 12:02 17.62632 3.63160 33813 ft 522 kts 14°
2026-05-05 12:03 17.69512 3.65582 33811 ft 522 kts 14°
2026-05-05 12:03 17.76451 3.68026 33810 ft 522 kts 14°
2026-05-05 12:04 17.83297 3.70439 33814 ft 522 kts 14°
2026-05-05 12:04 17.90185 3.72870 33814 ft 522 kts 14°
2026-05-05 12:05 17.97112 3.75315 33814 ft 522 kts 14°
2026-05-05 12:05 18.04002 3.77751 33821 ft 522 kts 14°
2026-05-05 12:06 18.10903 3.80191 33816 ft 523 kts 14°
2026-05-05 12:06 18.17782 3.82628 33812 ft 521 kts 14°
2026-05-05 12:07 18.24644 3.85057 33812 ft 520 kts 14°
2026-05-05 12:07 18.31495 3.87487 33809 ft 520 kts 14°
2026-05-05 12:08 18.38342 3.89917 33814 ft 520 kts 14°
2026-05-05 12:08 18.45161 3.92339 33814 ft 520 kts 14°
2026-05-05 12:09 18.52013 3.94775 33817 ft 520 kts 14°
2026-05-05 12:09 18.58871 3.97214 33817 ft 520 kts 14°
2026-05-05 12:10 18.65729 3.99656 33814 ft 520 kts 14°
2026-05-05 12:10 18.72586 4.02100 33813 ft 520 kts 14°
2026-05-05 12:11 18.79449 4.04548 33811 ft 521 kts 13°
2026-05-05 12:11 18.86322 4.07002 33811 ft 521 kts 13°
2026-05-05 12:12 18.93189 4.09455 33818 ft 521 kts 13°
2026-05-05 12:12 19.00050 4.11909 33815 ft 521 kts 13°
2026-05-05 12:13 19.05798 4.13966 33813 ft 521 kts 13°
2026-05-05 12:13 19.12635 4.16415 33808 ft 521 kts 13°
2026-05-05 12:14 19.19522 4.18785 33811 ft 520 kts 12°
2026-05-05 12:14 19.26418 4.21101 33807 ft 519 kts 13°
2026-05-05 12:15 19.33263 4.23454 33799 ft 517 kts 12°
2026-05-05 12:15 19.40124 4.25774 33812 ft 518 kts 13°
2026-05-05 12:16 19.46987 4.28127 33816 ft 518 kts 12°
2026-05-05 12:16 19.53841 4.30458 33821 ft 518 kts 13°
2026-05-05 12:17 19.60703 4.32807 33813 ft 518 kts 13°
2026-05-05 12:17 19.67561 4.35149 33829 ft 518 kts 13°
2026-05-05 12:18 19.74421 4.37498 33824 ft 518 kts 13°
2026-05-05 12:18 19.81303 4.39854 33828 ft 519 kts 13°
2026-05-05 12:19 19.88168 4.42208 33833 ft 519 kts 13°
2026-05-05 12:19 19.95036 4.44565 33824 ft 519 kts 13°
2026-05-05 12:20 20.01917 4.46929 33833 ft 519 kts 13°
2026-05-05 12:20 20.08792 4.49292 33838 ft 519 kts 13°
2026-05-05 12:21 20.15682 4.51663 33825 ft 521 kts 13°
2026-05-05 12:21 20.22570 4.54035 33826 ft 521 kts 13°
2026-05-05 12:22 20.29471 4.56414 33847 ft 521 kts 13°
2026-05-05 12:22 20.36314 4.58775 33825 ft 522 kts 13°
2026-05-05 12:23 20.43219 4.61161 33833 ft 522 kts 13°
2026-05-05 12:23 20.50135 4.63551 33836 ft 523 kts 13°
2026-05-05 12:24 20.57050 4.65945 33835 ft 523 kts 13°
2026-05-05 12:24 20.63981 4.68345 33837 ft 523 kts 13°
2026-05-05 12:25 20.70893 4.70742 33840 ft 523 kts 13°
2026-05-05 12:25 20.77817 4.73145 33829 ft 523 kts 13°
2026-05-05 12:26 20.84739 4.75549 33832 ft 523 kts 13°
2026-05-05 12:26 20.91656 4.77954 33832 ft 523 kts 13°
2026-05-05 12:27 20.98561 4.80358 33833 ft 522 kts 13°
2026-05-05 12:27 21.05478 4.82767 33834 ft 523 kts 13°
2026-05-05 12:28 21.12387 4.85177 33836 ft 522 kts 13°
2026-05-05 12:28 21.19301 4.87590 33836 ft 522 kts 13°
2026-05-05 12:29 21.26208 4.90004 33833 ft 522 kts 13°
2026-05-05 12:29 21.33100 4.92414 33834 ft 522 kts 13°
2026-05-05 12:30 21.39971 4.94820 33842 ft 522 kts 13°
2026-05-05 12:30 21.46923 4.97256 33839 ft 522 kts 13°
2026-05-05 12:31 21.53781 4.99662 33839 ft 522 kts 13°
2026-05-05 12:31 21.60686 5.02087 33840 ft 522 kts 13°
2026-05-05 12:32 21.67603 5.04518 33835 ft 522 kts 13°
2026-05-05 12:32 21.74500 5.06945 33838 ft 522 kts 12°
2026-05-05 12:33 21.81388 5.09372 33838 ft 520 kts 12°
2026-05-05 12:33 21.88258 5.11793 33838 ft 520 kts 12°
2026-05-05 12:34 21.95132 5.14220 33837 ft 520 kts 12°
2026-05-05 12:34 22.01994 5.16644 33836 ft 520 kts 12°
2026-05-05 12:35 22.08874 5.19077 33842 ft 519 kts 12°
2026-05-05 12:35 22.15738 5.21506 33848 ft 519 kts 12°
2026-05-05 12:36 22.22589 5.23935 33848 ft 519 kts 12°
2026-05-05 12:36 22.29464 5.26374 33857 ft 519 kts 12°
2026-05-05 12:37 22.36323 5.28810 33858 ft 519 kts 12°
2026-05-05 12:37 22.43185 5.31249 33867 ft 519 kts 12°
2026-05-05 12:38 22.50064 5.33697 33914 ft 520 kts 12°
2026-05-05 12:38 22.56946 5.36148 33983 ft 521 kts 12°
2026-05-05 12:39 22.63826 5.38602 34054 ft 521 kts 12°
2026-05-05 12:39 22.70717 5.41061 34123 ft 522 kts 12°
2026-05-05 12:40 22.77574 5.43512 34124 ft 522 kts 12°
2026-05-05 12:40 22.84576 5.45090 34142 ft 510 kts 360°
2026-05-05 12:41 22.91675 5.45888 34128 ft 510 kts 360°
2026-05-05 12:41 22.98695 5.46690 34056 ft 510 kts 359°
2026-05-05 12:42 23.05779 5.47491 34019 ft 513 kts
2026-05-05 12:42 23.12888 5.48304 33965 ft 514 kts
2026-05-05 12:43 23.19989 5.49111 33967 ft 514 kts
2026-05-05 12:43 23.27112 5.49925 33962 ft 514 kts
2026-05-05 12:44 23.34223 5.50736 33980 ft 514 kts
2026-05-05 12:44 23.41306 5.51547 33956 ft 511 kts
2026-05-05 12:45 23.48378 5.52355 33956 ft 511 kts
2026-05-05 12:45 23.55446 5.53165 33943 ft 511 kts
2026-05-05 12:46 23.62511 5.53975 33942 ft 511 kts
2026-05-05 12:46 23.69566 5.54786 33920 ft 509 kts
2026-05-05 12:47 23.76596 5.55593 33915 ft 508 kts
2026-05-05 12:47 23.83628 5.56402 33904 ft 508 kts
2026-05-05 12:48 23.90659 5.57212 33904 ft 508 kts
2026-05-05 12:48 23.97700 5.58024 33921 ft 508 kts
2026-05-05 12:49 24.04738 5.58837 33916 ft 509 kts
2026-05-05 12:49 24.11769 5.59650 33917 ft 509 kts
2026-05-05 12:50 24.18822 5.60465 33912 ft 509 kts
2026-05-05 12:50 24.25876 5.61282 33910 ft 509 kts
2026-05-05 12:51 24.32872 5.62094 33909 ft 507 kts
2026-05-05 12:51 24.39932 5.62913 33912 ft 508 kts 360°
2026-05-05 12:52 24.46924 5.63725 33898 ft 509 kts
2026-05-05 12:52 24.53961 5.64545 33894 ft 509 kts 360°
2026-05-05 12:53 24.60967 5.65358 33891 ft 510 kts 360°
2026-05-05 12:53 24.68015 5.66184 33891 ft 509 kts
2026-05-05 12:54 24.78542 5.67410 33895 ft 509 kts
2026-05-05 12:55 24.85579 5.68235 33891 ft 509 kts
2026-05-05 12:55 24.92629 5.69060 33884 ft 508 kts 360°
2026-05-05 12:56 24.99631 5.69880 33887 ft 507 kts 360°
2026-05-05 12:56 25.06645 5.70703 33882 ft 507 kts 360°
2026-05-05 12:57 25.13659 5.71528 33884 ft 505 kts 360°
2026-05-05 12:57 25.20644 5.72349 33878 ft 504 kts 360°
2026-05-05 12:58 25.27629 5.73171 33868 ft 505 kts 359°
2026-05-05 12:58 25.34620 5.73995 33873 ft 505 kts 359°
2026-05-05 12:59 25.41611 5.74821 33861 ft 505 kts 360°
2026-05-05 12:59 25.48597 5.75645 33866 ft 505 kts 359°
2026-05-05 13:00 25.57918 5.76749 33861 ft 506 kts 359°
2026-05-05 13:01 25.73087 5.78547 33858 ft 507 kts 359°
2026-05-05 13:01 25.78970 5.79247 33845 ft 507 kts 359°
2026-05-05 13:02 25.85978 5.80079 33857 ft 508 kts 359°
2026-05-05 13:02 25.92974 5.80912 33855 ft 509 kts 359°
2026-05-05 13:03 26.00010 5.81751 33856 ft 509 kts 359°
2026-05-05 13:03 26.07082 5.82594 33857 ft 509 kts 359°
2026-05-05 13:04 26.14079 5.83430 33863 ft 509 kts 359°
2026-05-05 13:04 26.21131 5.84273 33851 ft 510 kts 358°
2026-05-05 13:05 26.28189 5.85118 33837 ft 510 kts 358°
2026-05-05 13:05 26.35264 5.85966 33844 ft 511 kts 358°
2026-05-05 13:06 26.42322 5.86814 33837 ft 510 kts 358°
2026-05-05 13:06 26.49398 5.87662 33827 ft 512 kts 358°
2026-05-05 13:07 26.56485 5.88516 33821 ft 512 kts 358°
2026-05-05 13:07 26.63580 5.89371 33815 ft 512 kts 358°
2026-05-05 13:08 26.70665 5.90225 33816 ft 512 kts 358°
2026-05-05 13:08 26.77762 5.91082 33796 ft 513 kts 358°
2026-05-05 13:09 26.84849 5.91940 33797 ft 512 kts 358°
2026-05-05 13:09 26.91929 5.92796 33788 ft 512 kts 358°
2026-05-05 13:10 26.99024 5.93656 33779 ft 513 kts 358°
2026-05-05 13:10 27.06094 5.94515 33787 ft 511 kts 358°
2026-05-05 13:11 27.13173 5.95374 33774 ft 512 kts 358°
2026-05-05 13:11 27.20252 5.96236 33773 ft 511 kts 358°
2026-05-05 13:12 27.27320 5.97097 33767 ft 512 kts 358°
2026-05-05 13:12 27.34404 5.97961 33768 ft 512 kts 358°
2026-05-05 13:13 27.41466 5.98825 33766 ft 509 kts 358°
2026-05-05 13:13 27.48505 5.99684 33769 ft 509 kts 358°
2026-05-05 13:14 27.55511 6.00543 33766 ft 509 kts 358°
2026-05-05 13:14 27.62550 6.01405 33767 ft 509 kts 358°
2026-05-05 13:15 27.69599 6.02271 33769 ft 509 kts 358°
2026-05-05 13:15 27.76646 6.03137 33773 ft 510 kts 358°
2026-05-05 13:16 27.83703 6.04006 33774 ft 510 kts 358°
2026-05-05 13:16 27.90743 6.04874 33777 ft 510 kts 358°
2026-05-05 13:17 27.97817 6.05746 33768 ft 512 kts 358°
2026-05-05 13:17 28.04900 6.06623 33768 ft 512 kts 358°
2026-05-05 13:18 28.11978 6.07498 33772 ft 512 kts 358°
2026-05-05 13:18 28.19066 6.08377 33769 ft 512 kts 358°
2026-05-05 13:19 28.26155 6.09255 33749 ft 515 kts 358°
2026-05-05 13:19 28.33302 6.10144 33770 ft 517 kts 358°
2026-05-05 13:20 28.40447 6.11033 33758 ft 517 kts 358°
2026-05-05 13:20 28.47591 6.11923 33753 ft 517 kts 358°
2026-05-05 13:21 28.54740 6.12816 33768 ft 517 kts 358°
2026-05-05 13:21 28.61874 6.13706 33769 ft 515 kts 358°
2026-05-05 13:22 28.69005 6.14599 33769 ft 515 kts 358°
2026-05-05 13:22 28.76138 6.15492 33776 ft 515 kts 358°
2026-05-05 13:23 28.83268 6.16388 33777 ft 516 kts 357°
2026-05-05 13:23 28.90369 6.17281 33770 ft 513 kts 357°
2026-05-05 13:24 28.97424 6.18167 33763 ft 512 kts 357°
2026-05-05 13:24 29.04550 6.19066 33762 ft 512 kts 357°
2026-05-05 13:25 29.11633 6.19958 33790 ft 513 kts 357°
2026-05-05 13:25 29.18717 6.20855 33769 ft 511 kts 357°
2026-05-05 13:26 29.25797 6.21749 33775 ft 512 kts 357°
2026-05-05 13:26 29.32863 6.22645 33775 ft 512 kts 357°
2026-05-05 13:27 29.39946 6.23544 33802 ft 512 kts 358°
2026-05-05 13:27 29.47023 6.24443 33761 ft 513 kts 358°
2026-05-05 13:28 29.54110 6.25345 33761 ft 513 kts 358°
2026-05-05 13:28 29.61159 6.26243 33761 ft 513 kts 358°
2026-05-05 13:29 29.68248 6.27148 33788 ft 513 kts 358°
2026-05-05 13:29 29.75360 6.28056 33770 ft 514 kts 358°
2026-05-05 13:30 29.82464 6.28966 33774 ft 514 kts 358°
2026-05-05 13:30 29.89568 6.29875 33775 ft 514 kts 358°
2026-05-05 13:31 29.96685 6.30789 33807 ft 515 kts 358°
2026-05-05 13:31 30.03860 6.31711 33769 ft 515 kts 359°
2026-05-05 13:32 30.05446 6.31916 33769 ft 515 kts 359°
2026-05-05 13:33 30.12086 6.32770 33769 ft 515 kts 359°
2026-05-05 13:33 30.19209 6.33689 33769 ft 515 kts 359°
2026-05-05 13:34 30.26336 6.34608 33778 ft 516 kts 359°
2026-05-05 13:34 30.33465 6.35530 33776 ft 516 kts 359°
2026-05-05 13:35 30.40602 6.36455 33781 ft 516 kts 359°
2026-05-05 13:35 30.47744 6.37381 33786 ft 516 kts 359°
2026-05-05 13:36 30.54871 6.38306 33783 ft 516 kts 359°
2026-05-05 13:36 30.62001 6.39234 33792 ft 516 kts 359°
2026-05-05 13:37 30.69146 6.40164 33790 ft 516 kts 359°
2026-05-05 13:37 30.76286 6.41096 33790 ft 516 kts 359°
2026-05-05 13:38 30.83422 6.42027 33783 ft 517 kts 359°
2026-05-05 13:38 30.90577 6.42964 33787 ft 517 kts 359°
2026-05-05 13:39 30.97729 6.43901 33788 ft 518 kts 359°
2026-05-05 13:39 31.04886 6.44841 33796 ft 518 kts 359°
2026-05-05 13:40 31.12052 6.45782 33790 ft 519 kts 359°
2026-05-05 13:40 31.19222 6.46727 33786 ft 519 kts 359°
2026-05-05 13:41 31.26331 6.47666 33787 ft 516 kts 359°
2026-05-05 13:41 31.33454 6.48604 33798 ft 516 kts 359°
2026-05-05 13:42 31.40596 6.49549 33795 ft 517 kts 359°
2026-05-05 13:42 31.47792 6.50503 33796 ft 517 kts 359°
2026-05-05 13:43 31.54903 6.51446 33800 ft 517 kts 359°
2026-05-05 13:43 31.62049 6.52395 33804 ft 517 kts 359°
2026-05-05 13:44 31.69216 6.53349 33810 ft 518 kts 359°
2026-05-05 13:44 31.76386 6.54305 33811 ft 519 kts 359°
2026-05-05 13:45 31.83558 6.55262 33810 ft 519 kts 359°
2026-05-05 13:45 31.90739 6.56223 33844 ft 519 kts 359°
2026-05-05 13:46 31.97925 6.57184 33825 ft 521 kts 359°
2026-05-05 13:46 32.05123 6.58151 33825 ft 521 kts 359°
2026-05-05 13:47 32.11117 6.58955 33825 ft 521 kts 359°
2026-05-05 13:47 32.18315 6.59924 33847 ft 521 kts 359°
2026-05-05 13:48 32.25525 6.60895 33828 ft 521 kts 359°
2026-05-05 13:48 32.32734 6.61867 33829 ft 521 kts 359°
2026-05-05 13:49 32.39929 6.62840 33833 ft 522 kts 359°
2026-05-05 13:49 32.47134 6.63815 33825 ft 522 kts 359°
2026-05-05 13:50 32.54348 6.64793 33828 ft 521 kts 359°
2026-05-05 13:50 32.61545 6.65771 33827 ft 521 kts 359°
2026-05-05 13:51 32.68758 6.66752 33830 ft 521 kts 359°
2026-05-05 13:51 32.75948 6.67732 33834 ft 521 kts 359°
2026-05-05 13:52 32.83153 6.68715 33841 ft 521 kts 359°
2026-05-05 13:52 32.90362 6.69701 33844 ft 521 kts 359°
2026-05-05 13:53 32.97565 6.70687 33849 ft 521 kts 359°
2026-05-05 13:53 33.04776 6.71676 33843 ft 522 kts 359°
2026-05-05 13:54 33.12003 6.72669 33843 ft 522 kts 359°
2026-05-05 13:54 33.19215 6.73661 33851 ft 522 kts 359°
2026-05-05 13:55 33.26438 6.74657 33863 ft 522 kts 359°
2026-05-05 13:55 33.33649 6.75652 33876 ft 522 kts 359°
2026-05-05 13:56 33.40861 6.76650 33887 ft 522 kts 359°
2026-05-05 13:56 33.48067 6.77648 33890 ft 522 kts 359°
2026-05-05 13:57 33.55188 6.77814 33888 ft 511 kts 349°
2026-05-05 13:57 33.62295 6.77377 33890 ft 511 kts 349°
2026-05-05 13:58 33.69385 6.76951 33880 ft 511 kts 349°
2026-05-05 13:58 33.76495 6.76516 33865 ft 511 kts 349°
2026-05-05 13:59 33.87187 6.75866 33865 ft 512 kts 349°
2026-05-05 14:00 33.97868 6.75211 33868 ft 513 kts 349°
2026-05-05 14:00 34.04996 6.74777 33860 ft 514 kts 349°
2026-05-05 14:01 34.12132 6.74338 33857 ft 513 kts 349°
2026-05-05 14:01 34.19262 6.73901 33862 ft 513 kts 349°
2026-05-05 14:02 34.26320 6.73466 33870 ft 513 kts 349°
2026-05-05 14:02 34.33445 6.73026 33871 ft 513 kts 350°
2026-05-05 14:03 34.40581 6.72587 33872 ft 514 kts 349°
2026-05-05 14:03 34.47723 6.72144 33879 ft 514 kts 349°
2026-05-05 14:04 34.54859 6.71703 33881 ft 514 kts 350°
2026-05-05 14:04 34.62004 6.71259 33894 ft 514 kts 350°
2026-05-05 14:05 34.69160 6.70814 33898 ft 514 kts 350°
2026-05-05 14:05 34.76291 6.70370 33918 ft 514 kts 350°
2026-05-05 14:06 34.83395 6.69928 33917 ft 514 kts 351°
2026-05-05 14:06 34.90532 6.69496 33934 ft 514 kts 350°
2026-05-05 14:07 34.97680 6.69053 33953 ft 514 kts 350°
2026-05-05 14:07 35.04838 6.68615 33952 ft 515 kts 351°
2026-05-05 14:08 35.11971 6.68175 33958 ft 512 kts 351°
2026-05-05 14:08 35.19079 6.67737 33954 ft 511 kts 351°
2026-05-05 14:09 35.26176 6.67297 33958 ft 511 kts 351°
2026-05-05 14:09 35.33271 6.66859 33971 ft 511 kts 351°
2026-05-05 14:10 35.40367 6.66417 33976 ft 511 kts 351°
2026-05-05 14:10 35.47462 6.65978 33972 ft 511 kts 351°
2026-05-05 14:11 35.54525 6.65537 33974 ft 511 kts 351°
2026-05-05 14:11 35.61676 6.65090 33976 ft 513 kts 352°
2026-05-05 14:12 35.68806 6.64647 33978 ft 513 kts 352°
2026-05-05 14:12 35.75885 6.64202 33979 ft 513 kts 352°
2026-05-05 14:13 35.83012 6.63756 33982 ft 513 kts 352°
2026-05-05 14:13 35.90181 6.63306 33988 ft 513 kts 352°
2026-05-05 14:14 35.97309 6.62857 34001 ft 513 kts 352°
2026-05-05 14:14 36.04398 6.62410 34018 ft 513 kts 352°
2026-05-05 14:15 36.11549 6.61958 34034 ft 515 kts 352°
2026-05-05 14:15 36.15119 6.61733 34177 ft 515 kts 352°
2026-05-05 14:15 36.18704 6.61507 34523 ft 516 kts 352°
2026-05-05 14:16 36.22287 6.61279 34841 ft 516 kts 352°
2026-05-05 14:16 36.25871 6.61051 35158 ft 516 kts 352°
2026-05-05 14:16 36.29459 6.60933 35498 ft 520 kts 359°
2026-05-05 14:16 36.33064 6.61384 35837 ft 523 kts
2026-05-05 14:17 36.36692 6.61938 36088 ft 524 kts
2026-05-05 14:17 36.40311 6.62504 36319 ft 525 kts
2026-05-05 14:17 36.43928 6.63054 36556 ft 525 kts
2026-05-05 14:17 36.47560 6.63595 36770 ft 526 kts
2026-05-05 14:18 36.51186 6.64146 36989 ft 526 kts
2026-05-05 14:18 36.54831 6.64707 37207 ft 526 kts
2026-05-05 14:18 36.58464 6.65263 37427 ft 526 kts
2026-05-05 14:18 36.62096 6.65814 37646 ft 526 kts
2026-05-05 14:19 36.65729 6.66367 37850 ft 526 kts
2026-05-05 14:19 36.69363 6.66925 37992 ft 524 kts
2026-05-05 14:19 36.76546 6.68028 37977 ft 518 kts
2026-05-05 14:20 36.83670 6.69117 37977 ft 514 kts
2026-05-05 14:20 36.90759 6.70208 37973 ft 513 kts
2026-05-05 14:21 36.97839 6.71299 37977 ft 513 kts
2026-05-05 14:21 37.04946 6.72395 37995 ft 513 kts
2026-05-05 14:22 37.11997 6.73486 37979 ft 512 kts
2026-05-05 14:22 37.19031 6.74574 37980 ft 512 kts
2026-05-05 14:23 37.26105 6.75672 37980 ft 512 kts
2026-05-05 14:23 37.33169 6.76770 37983 ft 512 kts
2026-05-05 14:24 37.40256 6.77875 37985 ft 512 kts
2026-05-05 14:24 37.47323 6.78977 37985 ft 512 kts
2026-05-05 14:25 37.54402 6.80084 37963 ft 514 kts
2026-05-05 14:25 37.61488 6.81194 37966 ft 514 kts
2026-05-05 14:26 37.68589 6.82308 37961 ft 514 kts
2026-05-05 14:26 37.75660 6.83420 38008 ft 514 kts
2026-05-05 14:27 37.82770 6.84540 37974 ft 514 kts
2026-05-05 14:27 37.89853 6.85659 37988 ft 513 kts
2026-05-05 14:28 37.96946 6.86780 37984 ft 513 kts
2026-05-05 14:28 38.04042 6.87905 37988 ft 514 kts
2026-05-05 14:29 38.11145 6.89033 37977 ft 515 kts
2026-05-05 14:29 38.18206 6.90157 37978 ft 515 kts
2026-05-05 14:30 38.25310 6.91289 37983 ft 515 kts
2026-05-05 14:30 38.32420 6.92425 37980 ft 515 kts
2026-05-05 14:31 38.39521 6.93561 37978 ft 515 kts
2026-05-05 14:31 38.46642 6.94703 37988 ft 516 kts
2026-05-05 14:32 38.53767 6.95848 37981 ft 516 kts
2026-05-05 14:32 38.60890 6.96995 37975 ft 516 kts
2026-05-05 14:33 38.68009 6.98143 37973 ft 516 kts
2026-05-05 14:33 38.75130 6.99295 37971 ft 516 kts
2026-05-05 14:34 38.82259 7.00449 37974 ft 516 kts
2026-05-05 14:34 38.89371 7.01603 37974 ft 516 kts
2026-05-05 14:35 38.96489 7.02761 37974 ft 515 kts
2026-05-05 14:35 39.03601 7.04093 37973 ft 518 kts
2026-05-05 14:36 39.09500 7.05259 37978 ft 516 kts
2026-05-05 14:36 39.16613 7.06720 37964 ft 518 kts
2026-05-05 14:37 39.23721 7.08172 37962 ft 517 kts
2026-05-05 14:37 39.30832 7.09627 37960 ft 518 kts
2026-05-05 14:38 39.37938 7.11089 37974 ft 518 kts
2026-05-05 14:38 39.45067 7.12553 37971 ft 518 kts
2026-05-05 14:39 39.52179 7.14021 37972 ft 518 kts
2026-05-05 14:39 39.59268 7.15484 37989 ft 519 kts
2026-05-05 14:40 39.66405 7.16962 37972 ft 519 kts
2026-05-05 14:40 39.73580 7.18450 37971 ft 519 kts
2026-05-05 14:41 39.80674 7.19926 37970 ft 519 kts
2026-05-05 14:41 39.87843 7.21417 37968 ft 524 kts
2026-05-05 14:42 39.95046 7.22924 37972 ft 524 kts
2026-05-05 14:42 40.02240 7.24427 37974 ft 524 kts
2026-05-05 14:43 40.09468 7.25942 37970 ft 527 kts
2026-05-05 14:43 40.16717 7.27467 37971 ft 527 kts
2026-05-05 14:44 40.23945 7.28988 37972 ft 527 kts
2026-05-05 14:44 40.31204 7.30520 37967 ft 529 kts
2026-05-05 14:45 40.38487 7.32061 37971 ft 529 kts
2026-05-05 14:45 40.45757 7.33601 37970 ft 529 kts
2026-05-05 14:46 40.53031 7.35147 37970 ft 529 kts
2026-05-05 14:46 40.60306 7.36695 37970 ft 529 kts
2026-05-05 14:47 40.67580 7.38247 37988 ft 529 kts
2026-05-05 14:47 40.74855 7.39803 37961 ft 530 kts
2026-05-05 14:48 40.82135 7.41363 37965 ft 530 kts
2026-05-05 14:48 40.89408 7.42925 37998 ft 530 kts
2026-05-05 14:49 40.96711 7.44496 37960 ft 532 kts
2026-05-05 14:49 41.04020 7.46074 37958 ft 532 kts
2026-05-05 14:50 41.11327 7.47654 37979 ft 532 kts
2026-05-05 14:50 41.18594 7.49229 37958 ft 532 kts
2026-05-05 14:51 41.25898 7.50815 37955 ft 532 kts
2026-05-05 14:51 41.33210 7.52407 37972 ft 533 kts
2026-05-05 14:52 41.40533 7.54004 37969 ft 533 kts
2026-05-05 14:52 41.47848 7.55605 37968 ft 533 kts
2026-05-05 14:53 41.55175 7.57210 37945 ft 535 kts
2026-05-05 14:53 41.62527 7.58072 37954 ft 528 kts 356°
2026-05-05 14:54 41.69837 7.58632 37947 ft 527 kts 356°
2026-05-05 14:54 41.77156 7.59199 37951 ft 526 kts 356°
2026-05-05 14:55 41.84458 7.59760 37945 ft 526 kts 356°
2026-05-05 14:55 41.91709 7.60324 37946 ft 525 kts 356°
2026-05-05 14:56 41.99009 7.60888 37954 ft 526 kts 356°
2026-05-05 14:56 42.06354 7.61461 37950 ft 526 kts 356°
2026-05-05 14:57 42.13613 7.62026 37950 ft 526 kts 356°
2026-05-05 14:57 42.20924 7.62598 37947 ft 526 kts 356°
2026-05-05 14:58 42.28225 7.63170 37942 ft 526 kts 356°
2026-05-05 14:58 42.35525 7.63743 37941 ft 526 kts 356°
2026-05-05 14:59 42.42825 7.64318 37946 ft 526 kts 356°
2026-05-05 14:59 42.50127 7.64893 37952 ft 525 kts 356°
2026-05-05 15:00 42.56207 7.65373 37946 ft 526 kts 356°
2026-05-05 15:00 42.64746 7.66050 37946 ft 526 kts 356°
2026-05-05 15:01 42.72048 7.66630 37950 ft 525 kts 356°
2026-05-05 15:01 42.79338 7.67210 37940 ft 526 kts 356°
2026-05-05 15:02 42.86649 7.67794 37945 ft 526 kts 356°
2026-05-05 15:02 42.93940 7.68377 37946 ft 525 kts 356°
2026-05-05 15:03 43.01250 7.68963 37943 ft 525 kts 356°
2026-05-05 15:03 43.08552 7.69550 37942 ft 525 kts 356°
2026-05-05 15:04 43.15840 7.70137 37946 ft 526 kts 356°
2026-05-05 15:04 43.23111 7.70724 37947 ft 526 kts 357°
2026-05-05 15:05 43.34062 7.71611 37952 ft 526 kts 357°
2026-05-05 15:06 43.41381 7.72205 37954 ft 527 kts 357°
2026-05-05 15:06 43.48702 7.72803 37954 ft 527 kts 357°
2026-05-05 15:07 43.56026 7.73400 37956 ft 527 kts 357°
2026-05-05 15:07 43.63344 7.73999 37959 ft 528 kts 357°
2026-05-05 15:08 43.70676 7.74601 37953 ft 528 kts 357°
2026-05-05 15:08 43.78010 7.75203 37965 ft 528 kts 358°
2026-05-05 15:09 43.85270 7.77276 37980 ft 542 kts 16°
2026-05-05 15:09 43.92324 7.81001 37970 ft 544 kts 17°
2026-05-05 15:10 43.99374 7.84740 37975 ft 538 kts 17°
2026-05-05 15:10 44.06345 7.88431 37979 ft 536 kts 17°
2026-05-05 15:11 44.13319 7.92147 37962 ft 536 kts 17°
2026-05-05 15:11 44.20292 7.95860 37966 ft 537 kts 18°
2026-05-05 15:12 44.27263 7.99595 37971 ft 534 kts 17°
2026-05-05 15:12 44.34212 8.03312 37990 ft 535 kts 18°
2026-05-05 15:13 44.41163 8.07054 37967 ft 536 kts 17°
2026-05-05 15:13 44.48122 8.10800 37959 ft 537 kts 17°
2026-05-05 15:14 44.55097 8.14570 37963 ft 536 kts 17°
2026-05-05 15:14 44.62052 8.18335 37964 ft 537 kts 18°
2026-05-05 15:15 44.69009 8.22114 37965 ft 536 kts 18°
2026-05-05 15:15 44.75945 8.25888 37967 ft 538 kts 18°
2026-05-05 15:16 44.82931 8.29703 37974 ft 538 kts 18°
2026-05-05 15:16 44.89909 8.33520 37986 ft 539 kts 18°
2026-05-05 15:17 44.96922 8.37368 37972 ft 541 kts 18°
2026-05-05 15:17 45.03930 8.41223 37975 ft 541 kts 18°
2026-05-05 15:18 45.10957 8.45098 37975 ft 543 kts 18°
2026-05-05 15:18 45.17991 8.48990 37970 ft 543 kts 18°
2026-05-05 15:19 45.24999 8.52875 37988 ft 540 kts 18°
2026-05-05 15:19 45.32008 8.56771 37996 ft 541 kts 18°
2026-05-05 15:20 45.39021 8.60681 37998 ft 541 kts 18°
2026-05-05 15:20 45.46017 8.64590 38007 ft 542 kts 18°
2026-05-05 15:21 45.53053 8.68535 37998 ft 543 kts 18°
2026-05-05 15:21 45.60070 8.72477 37998 ft 543 kts 18°
2026-05-05 15:22 45.67098 8.76437 38001 ft 542 kts 19°
2026-05-05 15:22 45.74121 8.80405 37996 ft 542 kts 19°
2026-05-05 15:23 45.81138 8.84381 37999 ft 542 kts 19°
2026-05-05 15:23 45.88143 8.88360 38005 ft 541 kts 19°
2026-05-05 15:24 45.95127 8.92338 38001 ft 541 kts 19°
2026-05-05 15:24 46.02074 8.96306 38011 ft 541 kts 19°
2026-05-05 15:25 46.09064 9.00309 37988 ft 540 kts 19°
2026-05-05 15:25 46.16090 9.04112 38011 ft 537 kts 10°
2026-05-05 15:25 46.19757 9.04981 38023 ft 531 kts 358°
2026-05-05 15:26 46.22246 9.04991 38035 ft 526 kts 351°
2026-05-05 15:26 46.29390 9.03232 38013 ft 520 kts 342°
2026-05-05 15:27 46.36506 9.01211 38019 ft 523 kts 349°
2026-05-05 15:27 46.43799 9.00547 37991 ft 528 kts 353°
2026-05-05 15:28 46.51078 8.99605 37960 ft 524 kts 348°
2026-05-05 15:28 46.58346 8.98565 37984 ft 526 kts 352°
2026-05-05 15:29 46.65617 8.97651 37951 ft 525 kts 349°
2026-05-05 15:29 46.72914 8.96602 37931 ft 527 kts 351°
2026-05-05 15:30 46.80221 8.95655 37921 ft 526 kts 351°
2026-05-05 15:30 46.87524 8.94624 37908 ft 529 kts 351°
2026-05-05 15:31 46.94832 8.93648 37903 ft 524 kts 351°
2026-05-05 15:31 46.98434 8.93145 37648 ft 520 kts 351°
2026-05-05 15:31 47.02041 8.92641 37047 ft 520 kts 351°
2026-05-05 15:31 47.05639 8.92147 36508 ft 519 kts 351°
2026-05-05 15:32 47.09223 8.91657 35961 ft 518 kts 351°
2026-05-05 15:32 47.12811 8.91161 35413 ft 517 kts 351°
2026-05-05 15:32 47.16386 8.90663 34851 ft 516 kts 351°
2026-05-05 15:32 47.19960 8.90167 34278 ft 517 kts 350°
2026-05-05 15:33 47.23554 8.89670 33694 ft 518 kts 350°
2026-05-05 15:33 47.27149 8.89173 33075 ft 519 kts 353°
2026-05-05 15:33 47.30766 8.89243 32506 ft 524 kts
2026-05-05 15:33 47.34345 8.90343 31933 ft 527 kts 17°
2026-05-05 15:34 47.37784 8.92267 31296 ft 529 kts 23°
2026-05-05 15:34 47.41114 8.94548 30676 ft 528 kts 25°
2026-05-05 15:34 47.44434 8.96883 30032 ft 526 kts 24°
2026-05-05 15:34 47.47799 8.98918 29356 ft 522 kts 19°
2026-05-05 15:35 47.51242 9.00568 28703 ft 517 kts 16°
2026-05-05 15:35 47.54681 9.02062 28078 ft 513 kts 17°
2026-05-05 15:35 47.58045 9.03753 27455 ft 508 kts 20°
2026-05-05 15:35 47.61332 9.05620 26820 ft 504 kts 20°
2026-05-05 15:36 47.64620 9.07387 26218 ft 500 kts 19°
2026-05-05 15:36 47.67898 9.09002 25606 ft 496 kts 18°
2026-05-05 15:36 47.71173 9.10597 24992 ft 492 kts 14°
2026-05-05 15:36 47.74508 9.11575 24409 ft 488 kts
2026-05-05 15:37 47.77866 9.12083 23797 ft 484 kts
2026-05-05 15:37 47.81214 9.12386 23171 ft 480 kts
2026-05-05 15:37 47.84532 9.12817 22579 ft 475 kts
2026-05-05 15:37 47.87791 9.13470 21975 ft 470 kts
2026-05-05 15:38 47.91016 9.14101 21405 ft 465 kts
2026-05-05 15:38 47.94231 9.14587 20828 ft 461 kts
2026-05-05 15:38 47.97398 9.15049 20264 ft 457 kts
2026-05-05 15:38 48.00553 9.15586 19699 ft 453 kts
2026-05-05 15:39 48.03673 9.16142 19130 ft 450 kts
2026-05-05 15:39 48.06766 9.16655 18593 ft 447 kts
2026-05-05 15:39 48.09849 9.17143 18012 ft 444 kts
2026-05-05 15:39 48.12910 9.17677 17438 ft 440 kts
2026-05-05 15:40 48.15832 9.18934 16906 ft 437 kts 21°
2026-05-05 15:40 48.18600 9.20766 16364 ft 431 kts 25°
2026-05-05 15:40 48.21226 9.22769 15806 ft 418 kts 27°
2026-05-05 15:40 48.23737 9.24798 15255 ft 407 kts 28°
2026-05-05 15:41 48.26195 9.26838 14719 ft 396 kts 28°
2026-05-05 15:41 48.28573 9.28843 14178 ft 387 kts 28°
2026-05-05 15:41 48.30888 9.30817 13672 ft 378 kts 28°
2026-05-05 15:41 48.33124 9.32741 13048 ft 362 kts 28°
2026-05-05 15:42 48.35266 9.34594 12448 ft 352 kts 28°
2026-05-05 15:42 48.37391 9.36436 11923 ft 350 kts 28°
2026-05-05 15:42 48.39504 9.38268 11440 ft 354 kts 28°
2026-05-05 15:42 48.41653 9.40130 11060 ft 353 kts 28°
2026-05-05 15:43 48.43737 9.41940 11020 ft 341 kts 28°
2026-05-05 15:43 48.45782 9.43722 11022 ft 339 kts 28°
2026-05-05 15:43 48.47833 9.45512 11019 ft 339 kts 28°
2026-05-05 15:43 48.49870 9.47288 11018 ft 339 kts 28°
2026-05-05 15:44 48.51857 9.49158 11009 ft 331 kts 34°
2026-05-05 15:44 48.53653 9.51210 11007 ft 320 kts 37°
2026-05-05 15:44 48.55384 9.53316 11007 ft 319 kts 38°
2026-05-05 15:44 48.57088 9.55426 11020 ft 316 kts 38°
2026-05-05 15:45 48.58782 9.57535 11003 ft 313 kts 38°
2026-05-05 15:45 48.60444 9.59616 10857 ft 309 kts 42°
2026-05-05 15:45 48.61767 9.62151 10528 ft 308 kts 62°
2026-05-05 15:45 48.62709 9.64989 10196 ft 295 kts 67°
2026-05-05 15:46 48.63516 9.67758 9858 ft 283 kts 68°
2026-05-05 15:46 48.64293 9.70479 9474 ft 278 kts 69°
2026-05-05 15:46 48.65057 9.73152 9083 ft 277 kts 64°
2026-05-05 15:46 48.66272 9.75371 8678 ft 275 kts 33°
2026-05-05 15:47 48.67995 9.76460 8324 ft 269 kts
2026-05-05 15:47 48.69218 9.76439 8101 ft 262 kts 343°
2026-05-05 15:47 48.71295 9.74807 8037 ft 252 kts 317°
2026-05-05 15:47 48.72641 9.73128 8031 ft 251 kts 314°
2026-05-05 15:48 48.73829 9.71251 7891 ft 247 kts 295°
2026-05-05 15:48 48.74499 9.68897 7510 ft 240 kts 284°
2026-05-05 15:48 48.74938 9.66492 7131 ft 237 kts 279°
2026-05-05 15:48 48.75271 9.64038 6589 ft 236 kts 274°
2026-05-05 15:49 48.75347 9.61551 6000 ft 236 kts 266°
2026-05-05 15:49 48.75305 9.59060 5372 ft 237 kts 265°
2026-05-05 15:49 48.75277 9.56550 4773 ft 238 kts 263°
2026-05-05 15:49 48.75006 9.54095 4200 ft 234 kts 254°
2026-05-05 15:50 48.74589 9.51825 4010 ft 209 kts 253°
2026-05-05 15:50 48.74214 9.49831 3976 ft 187 kts 253°
2026-05-05 15:50 48.73859 9.47950 4003 ft 182 kts 252°
2026-05-05 15:50 48.73519 9.46148 4005 ft 177 kts 253°
2026-05-05 15:51 48.73174 9.44325 3877 ft 180 kts 253°
2026-05-05 15:51 48.72848 9.42592 3664 ft 162 kts 252°
2026-05-05 15:51 48.72543 9.40979 3447 ft 158 kts 253°
2026-05-05 15:51 48.72240 9.39386 3198 ft 155 kts 254°
2026-05-05 15:52 48.71948 9.37843 2898 ft 152 kts 254°
2026-05-05 15:52 48.71661 9.36318 2577 ft 149 kts 254°
2026-05-05 15:52 48.71367 9.34768 2323 ft 157 kts 254°
2026-05-05 15:52 48.71068 9.33186 2088 ft 160 kts 255°
2026-05-05 15:53 48.70757 9.31543 1933 ft 164 kts 255°
2026-05-05 15:53 48.70439 9.29858 1803 ft 167 kts 255°
2026-05-05 15:53 48.70119 9.28191 1651 ft 164 kts 254°
2026-05-05 15:53 48.69777 9.26490 1470 ft 176 kts 253°
2026-05-05 15:54 48.69440 9.24645 1304 ft 188 kts 257°
2026-05-05 15:54 48.69112 9.22813 1232 ft 166 kts 254°
2026-05-05 15:54 48.68843 9.21428 1269 ft 101 kts 253°
2026-05-05 15:54 48.68701 9.20681 1283 ft 57 kts 253°
2026-05-05 15:55 48.68625 9.20278 1288 ft 18 kts 254°
2026-05-05 15:55 48.68592 9.20108 1292 ft 14 kts 255°